Wetterdaten Herbst 2022

Datum T max T min Regen
01.09.2022 23.3 °C 13.4 °C 0 mm
02.09.2022 23.7 °C 10.1 °C 0 mm
03.09.2022 22.2 °C 16.4 °C 1 mm
04.09.2022 26.1 °C 14.1 °C 0.2 mm
05.09.2022 29.3 °C 12.9 °C 0 mm
06.09.2022 26.9 °C 15.8 °C 2.6 mm
07.09.2022 27.9 °C 16.1 °C 0 mm
08.09.2022 23.1 °C 13.3 °C 4.8 mm
09.09.2022 22.4 °C 12.7 °C 1.2 mm
10.09.2022 19.5 °C 13 °C 8.2 mm
11.09.2022 20.7 °C 13.4 °C 0.8 mm
12.09.2022 23.9 °C 10.6 °C 0 mm
13.09.2022 26.7 °C 12.1 °C 0 mm
14.09.2022 25.7 °C 17.2 °C 10.6 mm
15.09.2022 18 °C 14.2 °C 9.8 mm
17.09.2022 13.6 °C 8.8 °C 5.4 mm
18.09.2022 15.2 °C 9.1 °C 1.4 mm
19.09.2022 14.7 °C 7.1 °C 1.6 mm
20.09.2022 14.4 °C 7.6 °C 0.2 mm
21.09.2022 16.6 °C 3.7 °C 0 mm
22.09.2022 17.4 °C 3.1 °C 0 mm
23.09.2022 18.6 °C 5.3 °C 0 mm
24.09.2022 16.6 °C 10.3 °C 4 mm
25.09.2022 16.1 °C 11.3 °C 0 mm
26.09.2022 16.3 °C 8.1 °C 1 mm
27.09.2022 11.8 °C 7.6 °C 12.2 mm
28.09.2022 13.1 °C 7.8 °C 5 mm
29.09.2022 13.7 °C 6.3 °C 0 mm
30.09.2022 15.5 °C 6.1 °C 0 mm
01.10.2022 15.6 °C 6.9 °C 7.6 mm
02.10.2022 13.3 °C 11.5 °C 14.2 mm
03.10.2022 14.7 °C 7.7 °C 0.2 mm
04.10.2022 17.7 °C 5.5 °C 0 mm
05.10.2022 22.1 °C 6.7 °C 0 mm
06.10.2022 17.9 °C 10.6 °C 0 mm
07.10.2022 19.9 °C 10.8 °C 0 mm
08.10.2022 17.4 °C 8.3 °C 0 mm
09.10.2022 17.1 °C 3.8 °C 0 mm
10.10.2022 20.2 °C 9.1 °C 2.4 mm
11.10.2022 15.4 °C 12.2 °C 0 mm
12.10.2022 17.1 °C 9.9 °C 0 mm
13.10.2022 16.7 °C 9 °C 0.2 mm
14.10.2022 17.4 °C 12.3 °C 2 mm
15.10.2022 18.1 °C 13.7 °C 7.2 mm
16.10.2022 21.9 °C 13.8 °C 0 mm
17.10.2022 24 °C 11.8 °C 0 mm
18.10.2022 20.7 °C 13.2 °C 0 mm
19.10.2022 18.3 °C 12.2 °C 0 mm
20.10.2022 16.8 °C 9.5 °C 1.8 mm
21.10.2022 17.1 °C 12.9 °C 6.4 mm
22.10.2022 18.8 °C 11.8 °C 2 mm
23.10.2022 20.5 °C 9.9 °C 0 mm
24.10.2022 18.7 °C 12.2 °C 9.4 mm
25.10.2022 17.3 °C 10.1 °C 0 mm
26.10.2022 20.8 °C 11.4 °C 0 mm
27.10.2022 22.4 °C 9.6 °C 0 mm
28.10.2022 22.6 °C 11.9 °C 0 mm
29.10.2022 23.1 °C 10.7 °C 0 mm
30.10.2022 21.8 °C 11.2 °C 0 mm
31.10.2022 16.9 °C 8.3 °C 0 mm
01.11.2022 18 °C 8.6 °C 0 mm
02.11.2022 15 °C 7.1 °C 0 mm
03.11.2022 13.2 °C 5 °C 2 mm
04.11.2022 12.4 °C 7.9 °C 0.2 mm
05.11.2022 10.6 °C 3.7 °C 0.4 mm
06.11.2022 10.7 °C 1.9 °C 0.2 mm
07.11.2022 16.2 °C 8.5 °C 0 mm
08.11.2022 15.8 °C 4.9 °C 0 mm
09.11.2022 14.3 °C 9.8 °C 8.2 mm
10.11.2022 14.2 °C 6.1 °C 0.2 mm
11.11.2022 12.8 °C 4 °C 0 mm
12.11.2022 11.4 °C 3.1 °C 0 mm
13.11.2022 9.4 °C 1.4 °C 0 mm
14.11.2022 12.3 °C 0.8 °C 4.2 mm
15.11.2022 13.8 °C 7.4 °C 0.2 mm
16.11.2022 13.1 °C 7.6 °C 2.8 mm
17.11.2022 14.7 °C 7.6 °C 5.4 mm
18.11.2022 9.7 °C 7.1 °C 11.8 mm
19.11.2022 8.7 °C 3.4 °C 1.8 mm
20.11.2022 8.9 °C 3.5 °C 1.2 mm
21.11.2022 7.8 °C 4.6 °C 1.6 mm
22.11.2022 8.4 °C 4.6 °C 1 mm
23.11.2022 9.6 °C 3.4 °C 2.6 mm
24.11.2022 10.2 °C 2.1 °C 1 mm
25.11.2022 8.6 °C 1.3 °C 0.4 mm
26.11.2022 8.3 °C 1.2 °C 0.4 mm
27.11.2022 8.4 °C -1.3 °C 0 mm
28.11.2022 7.7 °C 3.8 °C 2.2 mm
29.11.2022 7.3 °C 5.8 °C 3 mm
30.11.2022 7 °C 3.9 °C 0.4 mm
 Hinweis zur Datenqualität
∅ Temperatur

12.3 °C

Abweichung vom Mittel

+2 °C

Niederschlag

174.6 mm

Abweichung vom Mittel

114 %

29.3 °C

Lufttemperatur
05.09.2022

1034 hPa

Luftdruck
11.11.2022

28.8 km/h

Windböen
18.09.2022

174.59991 mm

Niederschlag
 

-1.3 °C

Lufttemperatur
27.11.2022

-0.6 °C

Bodentemperatur 5cm
13.03.2022

996 hPa

Luftdruck
17.11.2022
 Hinweis zur Datenqualität